Year,Month,Day,Hour,Minute,Value (Times are PST for temperature in C)
2008,09,30,00,00,10.40
2008,09,30,00,01,10.40
2008,09,30,00,02,10.40
2008,09,30,00,03,10.40
2008,09,30,00,04,10.40
2008,09,30,00,05,10.40
2008,09,30,00,06,10.40
2008,09,30,00,07,10.40
2008,09,30,00,08,10.40
2008,09,30,00,09,10.40
2008,09,30,00,10,10.40
2008,09,30,00,11,10.40
2008,09,30,00,12,10.40
2008,09,30,00,13,10.30
2008,09,30,00,14,10.30
2008,09,30,00,15,10.30
2008,09,30,00,16,10.30
2008,09,30,00,17,10.30
2008,09,30,00,18,10.30
2008,09,30,00,19,10.30
2008,09,30,00,20,10.30
2008,09,30,00,21,10.30
2008,09,30,00,22,10.40
2008,09,30,00,23,10.40
2008,09,30,00,24,10.40
2008,09,30,00,25,10.40
2008,09,30,00,26,10.40
2008,09,30,00,27,10.30
2008,09,30,00,28,10.30
2008,09,30,00,29,10.30
2008,09,30,00,30,10.20
2008,09,30,00,31,10.20
2008,09,30,00,32,10.20
2008,09,30,00,33,10.20
2008,09,30,00,34,10.10
2008,09,30,00,35,10.10
2008,09,30,00,36,10.00
2008,09,30,00,37,10.00
2008,09,30,00,38,9.90
2008,09,30,00,39,9.90
2008,09,30,00,40,9.90
2008,09,30,00,41,9.90
2008,09,30,00,42,9.90
2008,09,30,00,43,9.90
2008,09,30,00,44,9.90
2008,09,30,00,45,9.80
2008,09,30,00,46,9.80
2008,09,30,00,47,9.80
2008,09,30,00,48,9.80
2008,09,30,00,49,9.80
2008,09,30,00,50,9.80
2008,09,30,00,51,9.80
2008,09,30,00,52,9.80
2008,09,30,00,53,9.80
2008,09,30,00,54,9.80
2008,09,30,00,55,9.80
2008,09,30,00,56,9.80
2008,09,30,00,57,9.70
2008,09,30,00,58,9.80
2008,09,30,00,59,9.80
2008,09,30,01,00,9.80
2008,09,30,01,01,9.80
2008,09,30,01,02,9.80
2008,09,30,01,03,9.80
2008,09,30,01,04,9.90
2008,09,30,01,05,9.90
2008,09,30,01,06,9.90
2008,09,30,01,07,9.90
2008,09,30,01,08,9.90
2008,09,30,01,09,10.00
2008,09,30,01,10,10.00
2008,09,30,01,11,10.10
2008,09,30,01,12,10.20
2008,09,30,01,13,10.20
2008,09,30,01,14,10.30
2008,09,30,01,15,10.40
2008,09,30,01,16,10.40
2008,09,30,01,17,10.50
2008,09,30,01,18,10.50
2008,09,30,01,19,10.60
2008,09,30,01,20,10.60
2008,09,30,01,21,10.60
2008,09,30,01,22,10.60
2008,09,30,01,23,10.60
2008,09,30,01,24,10.50
2008,09,30,01,25,10.50
2008,09,30,01,26,10.50
2008,09,30,01,27,10.40
2008,09,30,01,28,10.40
2008,09,30,01,29,10.40
2008,09,30,01,30,10.40
2008,09,30,01,31,10.50
2008,09,30,01,32,10.50
2008,09,30,01,33,10.50
2008,09,30,01,34,10.60
2008,09,30,01,35,10.60
2008,09,30,01,36,10.60
2008,09,30,01,37,10.70
2008,09,30,01,38,10.70
2008,09,30,01,39,10.80
2008,09,30,01,40,10.80
2008,09,30,01,41,10.80
2008,09,30,01,42,10.80
2008,09,30,01,43,10.90
2008,09,30,01,44,10.90
2008,09,30,01,45,11.00
2008,09,30,01,46,11.00
2008,09,30,01,47,11.00
2008,09,30,01,48,11.00
2008,09,30,01,49,11.00
2008,09,30,01,50,11.10
2008,09,30,01,51,11.10
2008,09,30,01,52,11.10
2008,09,30,01,53,11.20
2008,09,30,01,54,11.20
2008,09,30,01,55,11.30
2008,09,30,01,56,11.30
2008,09,30,01,57,11.30
2008,09,30,01,58,11.30
2008,09,30,01,59,11.30
2008,09,30,02,00,11.30
2008,09,30,02,01,11.40
2008,09,30,02,02,11.40
2008,09,30,02,03,11.40
2008,09,30,02,04,11.40
2008,09,30,02,05,11.40
2008,09,30,02,06,11.40
2008,09,30,02,07,11.40
2008,09,30,02,08,11.40
2008,09,30,02,09,11.40
2008,09,30,02,10,11.40
2008,09,30,02,11,11.40
2008,09,30,02,12,11.40
2008,09,30,02,13,11.40
2008,09,30,02,14,11.50
2008,09,30,02,15,11.50
2008,09,30,02,16,11.50
2008,09,30,02,17,11.50
2008,09,30,02,18,11.50
2008,09,30,02,19,11.50
2008,09,30,02,20,11.50
2008,09,30,02,21,11.50
2008,09,30,02,22,11.50
2008,09,30,02,23,11.50
2008,09,30,02,24,11.50
2008,09,30,02,25,11.50
2008,09,30,02,26,11.60
2008,09,30,02,27,11.60
2008,09,30,02,28,11.70
2008,09,30,02,29,11.70
2008,09,30,02,30,11.70
2008,09,30,02,31,11.80
2008,09,30,02,32,11.80
2008,09,30,02,33,11.80
2008,09,30,02,34,11.80
2008,09,30,02,35,11.80
2008,09,30,02,36,11.80
2008,09,30,02,37,11.80
2008,09,30,02,38,11.80
2008,09,30,02,39,11.80
2008,09,30,02,40,11.80
2008,09,30,02,41,11.80
2008,09,30,02,42,11.80
2008,09,30,02,43,11.80
2008,09,30,02,44,11.80
2008,09,30,02,45,11.70
2008,09,30,02,46,11.70
2008,09,30,02,47,11.70
2008,09,30,02,48,11.70
2008,09,30,02,49,11.70
2008,09,30,02,50,11.70
2008,09,30,02,51,11.70
2008,09,30,02,52,11.60
2008,09,30,02,53,11.60
2008,09,30,02,54,11.60
2008,09,30,02,55,11.60
2008,09,30,02,56,11.50
2008,09,30,02,57,11.50
2008,09,30,02,58,11.50
2008,09,30,02,59,11.40
2008,09,30,03,00,11.40
2008,09,30,03,01,11.40
2008,09,30,03,02,11.30
2008,09,30,03,03,11.30
2008,09,30,03,04,11.30
2008,09,30,03,05,11.20
2008,09,30,03,06,11.20
2008,09,30,03,07,11.20
2008,09,30,03,08,11.20
2008,09,30,03,09,11.20
2008,09,30,03,10,11.10
2008,09,30,03,11,11.10
2008,09,30,03,12,11.10
2008,09,30,03,13,11.10
2008,09,30,03,14,11.10
2008,09,30,03,15,11.10
2008,09,30,03,16,11.00
2008,09,30,03,17,11.00
2008,09,30,03,18,11.00
2008,09,30,03,19,11.00
2008,09,30,03,20,11.00
2008,09,30,03,21,11.00
2008,09,30,03,22,10.90
2008,09,30,03,23,10.90
2008,09,30,03,24,10.90
2008,09,30,03,25,10.90
2008,09,30,03,26,10.90
2008,09,30,03,27,10.90
2008,09,30,03,28,10.90
2008,09,30,03,29,10.80
2008,09,30,03,30,10.80
2008,09,30,03,31,10.80
2008,09,30,03,32,10.80
2008,09,30,03,33,10.80
2008,09,30,03,34,10.80
2008,09,30,03,35,10.80
2008,09,30,03,36,10.80
2008,09,30,03,37,10.70
2008,09,30,03,38,10.70
2008,09,30,03,39,10.70
2008,09,30,03,40,10.70
2008,09,30,03,41,10.60
2008,09,30,03,42,10.60
2008,09,30,03,43,10.60
2008,09,30,03,44,10.60
2008,09,30,03,45,10.50
2008,09,30,03,46,10.50
2008,09,30,03,47,10.50
2008,09,30,03,48,10.50
2008,09,30,03,49,10.50
2008,09,30,03,50,10.40
2008,09,30,03,51,10.40
2008,09,30,03,52,10.40
2008,09,30,03,53,10.40
2008,09,30,03,54,10.40
2008,09,30,03,55,10.40
2008,09,30,03,56,10.40
2008,09,30,03,57,10.30
2008,09,30,03,58,10.30
2008,09,30,03,59,10.30
2008,09,30,04,00,10.30
2008,09,30,04,01,10.30
2008,09,30,04,02,10.20
2008,09,30,04,03,10.20
2008,09,30,04,04,10.20
2008,09,30,04,05,10.20
2008,09,30,04,06,10.20
2008,09,30,04,07,10.20
2008,09,30,04,08,10.10
2008,09,30,04,09,10.10
2008,09,30,04,10,10.10
2008,09,30,04,11,10.10
2008,09,30,04,12,10.10
2008,09,30,04,13,10.00
2008,09,30,04,14,10.00
2008,09,30,04,15,10.00
2008,09,30,04,16,10.00
2008,09,30,04,17,10.00
2008,09,30,04,18,10.00
2008,09,30,04,19,10.00
2008,09,30,04,20,10.00
2008,09,30,04,21,10.00
2008,09,30,04,22,10.00
2008,09,30,04,23,10.00
2008,09,30,04,24,10.00
2008,09,30,04,25,10.00
2008,09,30,04,26,9.90
2008,09,30,04,27,9.90
2008,09,30,04,28,9.90
2008,09,30,04,29,9.90
2008,09,30,04,30,9.90
2008,09,30,04,31,9.90
2008,09,30,04,32,9.90
2008,09,30,04,33,9.90
2008,09,30,04,34,9.90
2008,09,30,04,35,9.90
2008,09,30,04,36,9.90
2008,09,30,04,37,9.90
2008,09,30,04,38,9.90
2008,09,30,04,39,9.90
2008,09,30,04,40,9.90
2008,09,30,04,41,9.80
2008,09,30,04,42,9.80
2008,09,30,04,43,9.80
2008,09,30,04,44,9.80
2008,09,30,04,45,9.80
2008,09,30,04,46,9.80
2008,09,30,04,47,9.80
2008,09,30,04,48,9.80
2008,09,30,04,49,9.70
2008,09,30,04,50,9.70
2008,09,30,04,51,9.70
2008,09,30,04,52,9.70
2008,09,30,04,53,9.70
2008,09,30,04,54,9.70
2008,09,30,04,55,9.60
2008,09,30,04,56,9.60
2008,09,30,04,57,9.60
2008,09,30,04,58,9.60
2008,09,30,04,59,9.60
2008,09,30,05,00,9.60
2008,09,30,05,01,9.60
2008,09,30,05,02,9.60
2008,09,30,05,03,9.60
2008,09,30,05,04,9.50
2008,09,30,05,05,9.50
2008,09,30,05,06,9.50
2008,09,30,05,07,9.40
2008,09,30,05,08,9.40
2008,09,30,05,09,9.40
2008,09,30,05,10,9.30
2008,09,30,05,11,9.30
2008,09,30,05,12,9.30
2008,09,30,05,13,9.30
2008,09,30,05,14,9.30
2008,09,30,05,15,9.20
2008,09,30,05,16,9.20
2008,09,30,05,17,9.20
2008,09,30,05,18,9.10
2008,09,30,05,19,9.10
2008,09,30,05,20,9.10
2008,09,30,05,21,9.10
2008,09,30,05,22,9.10
2008,09,30,05,23,9.00
2008,09,30,05,24,9.00
2008,09,30,05,25,9.00
2008,09,30,05,26,9.00
2008,09,30,05,27,9.00
2008,09,30,05,28,9.00
2008,09,30,05,29,8.90
2008,09,30,05,30,8.90
2008,09,30,05,31,8.90
2008,09,30,05,32,8.90
2008,09,30,05,33,8.90
2008,09,30,05,34,8.90
2008,09,30,05,35,8.90
2008,09,30,05,36,8.90
2008,09,30,05,37,8.90
2008,09,30,05,38,8.90
2008,09,30,05,39,8.90
2008,09,30,05,40,8.90
2008,09,30,05,41,8.90
2008,09,30,05,42,8.90
2008,09,30,05,43,8.90
2008,09,30,05,44,8.90
2008,09,30,05,45,8.90
2008,09,30,05,46,8.90
2008,09,30,05,47,8.90
2008,09,30,05,48,8.80
2008,09,30,05,49,8.80
2008,09,30,05,50,8.80
2008,09,30,05,51,8.80
2008,09,30,05,52,8.90
2008,09,30,05,53,8.80
2008,09,30,05,54,8.90
2008,09,30,05,55,8.90
2008,09,30,05,56,8.90
2008,09,30,05,57,8.90
2008,09,30,05,58,8.90
2008,09,30,05,59,8.90
2008,09,30,06,00,8.90
2008,09,30,06,01,8.90
2008,09,30,06,02,8.90
2008,09,30,06,03,8.80
2008,09,30,06,04,8.80
2008,09,30,06,05,8.80
2008,09,30,06,06,8.80
2008,09,30,06,07,8.90
2008,09,30,06,08,8.90
2008,09,30,06,09,8.90
2008,09,30,06,10,8.90
2008,09,30,06,11,8.90
2008,09,30,06,12,8.90
2008,09,30,06,13,8.90
2008,09,30,06,14,8.90
2008,09,30,06,15,8.90
2008,09,30,06,16,8.90
2008,09,30,06,17,8.80
2008,09,30,06,18,8.80
2008,09,30,06,19,8.80
2008,09,30,06,20,8.70
2008,09,30,06,21,8.70
2008,09,30,06,22,8.70
2008,09,30,06,23,8.70
2008,09,30,06,24,8.60
2008,09,30,06,25,8.60
2008,09,30,06,26,8.60
2008,09,30,06,27,8.50
2008,09,30,06,28,8.50
2008,09,30,06,29,8.40
2008,09,30,06,30,8.40
2008,09,30,06,31,8.30
2008,09,30,06,32,8.30
2008,09,30,06,33,8.30
2008,09,30,06,34,8.30
2008,09,30,06,35,8.20
2008,09,30,06,36,8.20
2008,09,30,06,37,8.20
2008,09,30,06,38,8.20
2008,09,30,06,39,8.20
2008,09,30,06,40,8.20
2008,09,30,06,41,8.20
2008,09,30,06,42,8.20
2008,09,30,06,43,8.20
2008,09,30,06,44,8.30
2008,09,30,06,45,8.30
2008,09,30,06,46,8.30
2008,09,30,06,47,8.30
2008,09,30,06,48,8.30
2008,09,30,06,49,8.30
2008,09,30,06,50,8.30
2008,09,30,06,51,8.40
2008,09,30,06,52,8.40
2008,09,30,06,53,8.40
2008,09,30,06,54,8.30
2008,09,30,06,55,8.30
2008,09,30,06,56,8.30
2008,09,30,06,57,8.30
2008,09,30,06,58,8.30
2008,09,30,06,59,8.30
2008,09,30,07,00,8.30
2008,09,30,07,01,8.30
2008,09,30,07,02,8.30
2008,09,30,07,03,8.30
2008,09,30,07,04,8.30
2008,09,30,07,05,8.30
2008,09,30,07,06,8.30
2008,09,30,07,07,8.30
2008,09,30,07,08,8.30
2008,09,30,07,09,8.30
2008,09,30,07,10,8.30
2008,09,30,07,11,8.30
2008,09,30,07,12,8.30
2008,09,30,07,13,8.30
2008,09,30,07,14,8.30
2008,09,30,07,15,8.20
2008,09,30,07,16,8.20
2008,09,30,07,17,8.20
2008,09,30,07,18,8.20
2008,09,30,07,19,8.20
2008,09,30,07,20,8.20
2008,09,30,07,21,8.20
2008,09,30,07,22,8.20
2008,09,30,07,23,8.20
2008,09,30,07,24,8.20
2008,09,30,07,25,8.20
2008,09,30,07,26,8.20
2008,09,30,07,27,8.20
2008,09,30,07,28,8.20
2008,09,30,07,29,8.20
2008,09,30,07,30,8.20
2008,09,30,07,31,8.20
2008,09,30,07,32,8.30
2008,09,30,07,33,8.30
2008,09,30,07,34,8.30
2008,09,30,07,35,8.40
2008,09,30,07,36,8.40
2008,09,30,07,37,8.40
2008,09,30,07,38,8.40
2008,09,30,07,39,8.40
2008,09,30,07,40,8.40
2008,09,30,07,41,8.40
2008,09,30,07,42,8.50
2008,09,30,07,43,8.50
2008,09,30,07,44,8.50
2008,09,30,07,45,8.50
2008,09,30,07,46,8.50
2008,09,30,07,47,8.50
2008,09,30,07,48,8.50
2008,09,30,07,49,8.60
2008,09,30,07,50,8.60
2008,09,30,07,51,8.60
2008,09,30,07,52,8.60
2008,09,30,07,53,8.70
2008,09,30,07,54,8.70
2008,09,30,07,55,8.70
2008,09,30,07,56,8.70
2008,09,30,07,57,8.70
2008,09,30,07,58,8.80
2008,09,30,07,59,8.80
2008,09,30,08,00,8.80
2008,09,30,08,01,8.90
2008,09,30,08,02,8.90
2008,09,30,08,03,9.00
2008,09,30,08,04,9.10
2008,09,30,08,05,9.10
2008,09,30,08,06,9.20
2008,09,30,08,07,9.20
2008,09,30,08,08,9.20
2008,09,30,08,09,9.30
2008,09,30,08,10,9.30
2008,09,30,08,11,9.30
2008,09,30,08,12,9.40
2008,09,30,08,13,9.40
2008,09,30,08,14,9.50
2008,09,30,08,15,9.60
2008,09,30,08,16,9.60
2008,09,30,08,17,9.70
2008,09,30,08,18,9.80
2008,09,30,08,19,9.80
2008,09,30,08,20,9.90
2008,09,30,08,21,9.90
2008,09,30,08,22,10.00
2008,09,30,08,23,10.10
2008,09,30,08,24,10.10
2008,09,30,08,25,10.20
2008,09,30,08,26,10.30
2008,09,30,08,27,10.30
2008,09,30,08,28,10.40
2008,09,30,08,29,10.50
2008,09,30,08,30,10.50
2008,09,30,08,31,10.60
2008,09,30,08,32,10.70
2008,09,30,08,33,10.70
2008,09,30,08,34,10.80
2008,09,30,08,35,10.90
2008,09,30,08,36,10.90
2008,09,30,08,37,11.00
2008,09,30,08,38,11.10
2008,09,30,08,39,11.20
2008,09,30,08,40,11.20
2008,09,30,08,41,11.30
2008,09,30,08,42,11.30
2008,09,30,08,43,11.40
2008,09,30,08,44,11.50
2008,09,30,08,45,11.60
2008,09,30,08,46,11.70
2008,09,30,08,47,11.80
2008,09,30,08,48,11.80
2008,09,30,08,49,11.90
2008,09,30,08,50,12.00
2008,09,30,08,51,12.00
2008,09,30,08,52,12.10
2008,09,30,08,53,12.20
2008,09,30,08,54,12.20
2008,09,30,08,55,12.30
2008,09,30,08,56,12.30
2008,09,30,08,57,12.40
2008,09,30,08,58,12.50
2008,09,30,08,59,12.60
2008,09,30,09,00,12.60
2008,09,30,09,01,12.70
2008,09,30,09,02,12.80
2008,09,30,09,03,12.80
2008,09,30,09,04,12.90
2008,09,30,09,05,12.90
2008,09,30,09,06,12.90
2008,09,30,09,07,13.00
2008,09,30,09,08,13.00
2008,09,30,09,09,13.10
2008,09,30,09,10,13.10
2008,09,30,09,11,13.20
2008,09,30,09,12,13.20
2008,09,30,09,13,13.30
2008,09,30,09,14,13.40
2008,09,30,09,15,13.40
2008,09,30,09,16,13.50
2008,09,30,09,17,13.50
2008,09,30,09,18,13.60
2008,09,30,09,19,13.70
2008,09,30,09,20,13.70
2008,09,30,09,21,13.70
2008,09,30,09,22,13.80
2008,09,30,09,23,13.90
2008,09,30,09,24,14.00
2008,09,30,09,25,14.10
2008,09,30,09,26,14.20
2008,09,30,09,27,14.30
2008,09,30,09,28,14.30
2008,09,30,09,29,14.40
2008,09,30,09,30,14.50
2008,09,30,09,31,14.60
2008,09,30,09,32,14.70
2008,09,30,09,33,14.70
2008,09,30,09,34,14.80
2008,09,30,09,35,14.90
2008,09,30,09,36,15.00
2008,09,30,09,37,15.00
2008,09,30,09,38,15.00
2008,09,30,09,39,15.00
2008,09,30,09,40,15.00
2008,09,30,09,41,15.00
2008,09,30,09,42,15.00
2008,09,30,09,43,15.10
2008,09,30,09,44,15.20
2008,09,30,09,45,15.20
2008,09,30,09,46,15.30
2008,09,30,09,47,15.30
2008,09,30,09,48,15.30
2008,09,30,09,49,15.40
2008,09,30,09,50,15.40
2008,09,30,09,51,15.50
2008,09,30,09,52,15.60
2008,09,30,09,53,15.60
2008,09,30,09,54,15.70
2008,09,30,09,55,15.80
2008,09,30,09,56,15.90
2008,09,30,09,57,16.00
2008,09,30,09,58,16.00
2008,09,30,09,59,16.10
2008,09,30,10,00,16.20
2008,09,30,10,01,16.30
2008,09,30,10,02,16.30
2008,09,30,10,03,16.40
2008,09,30,10,04,16.50
2008,09,30,10,05,16.60
2008,09,30,10,06,16.70
2008,09,30,10,07,16.80
2008,09,30,10,08,16.90
2008,09,30,10,09,17.00
2008,09,30,10,10,17.00
2008,09,30,10,11,17.10
2008,09,30,10,12,17.10
2008,09,30,10,13,17.20
2008,09,30,10,14,17.20
2008,09,30,10,15,17.20
2008,09,30,10,16,17.30
2008,09,30,10,17,17.30
2008,09,30,10,18,17.30
2008,09,30,10,19,17.30
2008,09,30,10,20,17.30
2008,09,30,10,21,17.30
2008,09,30,10,22,17.40
2008,09,30,10,23,17.40
2008,09,30,10,24,17.40
2008,09,30,10,25,17.40
2008,09,30,10,26,17.50
2008,09,30,10,27,17.50
2008,09,30,10,28,17.50
2008,09,30,10,29,17.50
2008,09,30,10,30,17.50
2008,09,30,10,31,17.60
2008,09,30,10,32,17.60
2008,09,30,10,33,17.60
2008,09,30,10,34,17.60
2008,09,30,10,35,17.60
2008,09,30,10,36,17.60
2008,09,30,10,37,17.60
2008,09,30,10,38,17.60
2008,09,30,10,39,17.60
2008,09,30,10,40,17.60
2008,09,30,10,41,17.70
2008,09,30,10,42,17.70
2008,09,30,10,43,17.70
2008,09,30,10,44,17.80
2008,09,30,10,45,17.80
2008,09,30,10,46,17.90
2008,09,30,10,47,17.90
2008,09,30,10,48,17.90
2008,09,30,10,49,18.00
2008,09,30,10,50,18.00
2008,09,30,10,51,18.10
2008,09,30,10,52,18.10
2008,09,30,10,53,18.10
2008,09,30,10,54,18.20
2008,09,30,10,55,18.20
2008,09,30,10,56,18.20
2008,09,30,10,57,18.30
2008,09,30,10,58,18.30
2008,09,30,10,59,18.30
2008,09,30,11,00,18.40
2008,09,30,11,01,18.50
2008,09,30,11,02,18.50
2008,09,30,11,03,18.60
2008,09,30,11,04,18.70
2008,09,30,11,05,18.70
2008,09,30,11,06,18.70
2008,09,30,11,07,18.70
2008,09,30,11,08,18.70
2008,09,30,11,09,18.70
2008,09,30,11,10,18.70
2008,09,30,11,11,18.60
2008,09,30,11,12,18.40
2008,09,30,11,13,18.30
2008,09,30,11,14,18.20
2008,09,30,11,15,18.00
2008,09,30,11,16,18.00
2008,09,30,11,17,17.90
2008,09,30,11,18,17.90
2008,09,30,11,19,17.90
2008,09,30,11,20,17.90
2008,09,30,11,21,17.90
2008,09,30,11,22,17.90
2008,09,30,11,23,17.90
2008,09,30,11,24,17.90
2008,09,30,11,25,17.90
2008,09,30,11,26,17.90
2008,09,30,11,27,17.90
2008,09,30,11,28,17.80
2008,09,30,11,29,17.80
2008,09,30,11,30,17.70
2008,09,30,11,31,17.60
2008,09,30,11,32,17.60
2008,09,30,11,33,17.50
2008,09,30,11,34,17.50
2008,09,30,11,35,17.50
2008,09,30,11,36,17.40
2008,09,30,11,37,17.40
2008,09,30,11,38,17.40
2008,09,30,11,39,17.40
2008,09,30,11,40,17.40
2008,09,30,11,41,17.40
2008,09,30,11,42,17.40
2008,09,30,11,43,17.40
2008,09,30,11,44,17.40
2008,09,30,11,45,17.40
2008,09,30,11,46,17.40
2008,09,30,11,47,17.40
2008,09,30,11,48,17.40
2008,09,30,11,49,17.40
2008,09,30,11,50,17.40
2008,09,30,11,51,17.40
2008,09,30,11,52,17.40
2008,09,30,11,53,17.40
2008,09,30,11,54,17.40
2008,09,30,11,55,17.40
2008,09,30,11,56,17.30
2008,09,30,11,57,17.30
2008,09,30,11,58,17.30
2008,09,30,11,59,17.20
2008,09,30,12,00,17.10
2008,09,30,12,01,17.00
2008,09,30,12,02,16.90
2008,09,30,12,03,16.90
2008,09,30,12,04,16.80
2008,09,30,12,05,16.80
2008,09,30,12,06,16.80
2008,09,30,12,07,16.70
2008,09,30,12,08,16.70
2008,09,30,12,09,16.60
2008,09,30,12,10,16.60
2008,09,30,12,11,16.60
2008,09,30,12,12,16.60
2008,09,30,12,13,16.70
2008,09,30,12,14,16.70
2008,09,30,12,15,16.80
2008,09,30,12,16,16.80
2008,09,30,12,17,16.90
2008,09,30,12,18,17.00
2008,09,30,12,19,17.10
2008,09,30,12,20,17.20
2008,09,30,12,21,17.30
2008,09,30,12,22,17.30
2008,09,30,12,23,17.40
2008,09,30,12,24,17.50
2008,09,30,12,25,17.60
2008,09,30,12,26,17.70
2008,09,30,12,27,17.70
2008,09,30,12,28,17.80
2008,09,30,12,29,17.80
2008,09,30,12,30,17.80
2008,09,30,12,31,17.80
2008,09,30,12,32,17.90
2008,09,30,12,33,18.00
2008,09,30,12,34,18.00
2008,09,30,12,35,18.10
2008,09,30,12,36,18.20
2008,09,30,12,37,18.20
2008,09,30,12,38,18.20
2008,09,30,12,39,18.20
2008,09,30,12,40,18.20
2008,09,30,12,41,18.30
2008,09,30,12,42,18.30
2008,09,30,12,43,18.40
2008,09,30,12,44,18.40
2008,09,30,12,45,18.40
2008,09,30,12,46,18.40
2008,09,30,12,47,18.40
2008,09,30,12,48,18.40
2008,09,30,12,49,18.40
2008,09,30,12,50,18.30
2008,09,30,12,51,18.30
2008,09,30,12,52,18.30
2008,09,30,12,53,18.30
2008,09,30,12,54,18.40
2008,09,30,12,55,18.40
2008,09,30,12,56,18.30
2008,09,30,12,57,18.30
2008,09,30,12,58,18.30
2008,09,30,12,59,18.20
2008,09,30,13,00,18.20
2008,09,30,13,01,18.20
2008,09,30,13,02,18.20
2008,09,30,13,03,18.20
2008,09,30,13,04,18.30
2008,09,30,13,05,18.40
2008,09,30,13,06,18.50
2008,09,30,13,07,18.60
2008,09,30,13,08,18.60
2008,09,30,13,09,18.60
2008,09,30,13,10,18.60
2008,09,30,13,11,18.70
2008,09,30,13,12,18.70
2008,09,30,13,13,18.70
2008,09,30,13,14,18.70
2008,09,30,13,15,18.70
2008,09,30,13,16,18.80
2008,09,30,13,17,18.80
2008,09,30,13,18,18.80
2008,09,30,13,19,18.90
2008,09,30,13,20,18.90
2008,09,30,13,21,18.90
2008,09,30,13,22,19.00
2008,09,30,13,23,19.00
2008,09,30,13,24,19.10
2008,09,30,13,25,19.10
2008,09,30,13,26,19.10
2008,09,30,13,27,19.10
2008,09,30,13,28,19.20
2008,09,30,13,29,19.20
2008,09,30,13,30,19.30
2008,09,30,13,31,19.30
2008,09,30,13,32,19.20
2008,09,30,13,33,19.30
2008,09,30,13,34,19.30
2008,09,30,13,35,19.30
2008,09,30,13,36,19.30
2008,09,30,13,37,19.30
2008,09,30,13,38,19.30
2008,09,30,13,39,19.30
2008,09,30,13,40,19.30
2008,09,30,13,41,19.30
2008,09,30,13,42,19.30
2008,09,30,13,43,19.30
2008,09,30,13,44,19.30
2008,09,30,13,45,19.30
2008,09,30,13,46,19.30
2008,09,30,13,47,19.30
2008,09,30,13,48,19.30
2008,09,30,13,49,19.40
2008,09,30,13,50,19.40
2008,09,30,13,51,19.50
2008,09,30,13,52,19.50
2008,09,30,13,53,19.60
2008,09,30,13,54,19.70
2008,09,30,13,55,19.70
2008,09,30,13,56,19.80
2008,09,30,13,57,19.80
2008,09,30,13,58,19.80
2008,09,30,13,59,19.80
2008,09,30,14,00,19.80
2008,09,30,14,01,19.90
2008,09,30,14,02,19.90
2008,09,30,14,03,19.90
2008,09,30,14,04,19.90
2008,09,30,14,05,20.00
2008,09,30,14,06,20.00
2008,09,30,14,07,20.10
2008,09,30,14,08,20.10
2008,09,30,14,09,20.20
2008,09,30,14,10,20.20
2008,09,30,14,11,20.30
2008,09,30,14,12,20.30
2008,09,30,14,13,20.40
2008,09,30,14,14,20.30
2008,09,30,14,15,20.30
2008,09,30,14,16,20.30
2008,09,30,14,17,20.20
2008,09,30,14,18,20.20
2008,09,30,14,19,20.20
2008,09,30,14,20,20.10
2008,09,30,14,21,20.10
2008,09,30,14,22,20.10
2008,09,30,14,23,20.00
2008,09,30,14,24,20.00
2008,09,30,14,25,19.90
2008,09,30,14,26,19.90
2008,09,30,14,27,19.90
2008,09,30,14,28,19.80
2008,09,30,14,29,19.80
2008,09,30,14,30,19.70
2008,09,30,14,31,19.70
2008,09,30,14,32,19.70
2008,09,30,14,33,19.70
2008,09,30,14,34,19.60
2008,09,30,14,35,19.60
2008,09,30,14,36,19.60
2008,09,30,14,37,19.50
2008,09,30,14,38,19.50
2008,09,30,14,39,19.50
2008,09,30,14,40,19.40
2008,09,30,14,41,19.30
2008,09,30,14,42,19.30
2008,09,30,14,43,19.30
2008,09,30,14,44,19.20
2008,09,30,14,45,19.20
2008,09,30,14,46,19.20
2008,09,30,14,47,19.20
2008,09,30,14,48,19.30
2008,09,30,14,49,19.30
2008,09,30,14,50,19.30
2008,09,30,14,51,19.30
2008,09,30,14,52,19.30
2008,09,30,14,53,19.30
2008,09,30,14,54,19.40
2008,09,30,14,55,19.40
2008,09,30,14,56,19.40
2008,09,30,14,57,19.40
2008,09,30,14,58,19.40
2008,09,30,14,59,19.40
2008,09,30,15,00,19.40
2008,09,30,15,01,19.40
2008,09,30,15,02,19.40
2008,09,30,15,03,19.40
2008,09,30,15,04,19.40
2008,09,30,15,05,19.40
2008,09,30,15,06,19.40
2008,09,30,15,07,19.40
2008,09,30,15,08,19.40
2008,09,30,15,09,19.40
2008,09,30,15,10,19.50
2008,09,30,15,11,19.60
2008,09,30,15,12,19.60
2008,09,30,15,13,19.60
2008,09,30,15,14,19.60
2008,09,30,15,15,19.60
2008,09,30,15,16,19.50
2008,09,30,15,17,19.40
2008,09,30,15,18,19.40
2008,09,30,15,19,19.40
2008,09,30,15,20,19.30
2008,09,30,15,21,19.30
2008,09,30,15,22,19.20
2008,09,30,15,23,19.10
2008,09,30,15,24,19.10
2008,09,30,15,25,19.10
2008,09,30,15,26,19.10
2008,09,30,15,27,19.00
2008,09,30,15,28,19.00
2008,09,30,15,29,19.00
2008,09,30,15,30,19.00
2008,09,30,15,31,19.10
2008,09,30,15,32,19.10
2008,09,30,15,33,19.10
2008,09,30,15,34,19.10
2008,09,30,15,35,19.00
2008,09,30,15,36,19.00
2008,09,30,15,37,18.90
2008,09,30,15,38,18.90
2008,09,30,15,39,18.90
2008,09,30,15,40,18.90
2008,09,30,15,41,18.80
2008,09,30,15,42,18.80
2008,09,30,15,43,18.80
2008,09,30,15,44,18.70
2008,09,30,15,45,18.70
2008,09,30,15,46,18.70
2008,09,30,15,47,18.70
2008,09,30,15,48,18.70
2008,09,30,15,49,18.80
2008,09,30,15,50,18.80
2008,09,30,15,51,18.80
2008,09,30,15,52,18.80
2008,09,30,15,53,18.80
2008,09,30,15,54,18.80
2008,09,30,15,55,18.80
2008,09,30,15,56,18.80
2008,09,30,15,57,18.80
2008,09,30,15,58,18.70
2008,09,30,15,59,18.70
2008,09,30,16,00,18.70
2008,09,30,16,01,18.70
2008,09,30,16,02,18.60
2008,09,30,16,03,18.60
2008,09,30,16,04,18.60
2008,09,30,16,05,18.60
2008,09,30,16,06,18.60
2008,09,30,16,07,18.60
2008,09,30,16,08,18.60
2008,09,30,16,09,18.60
2008,09,30,16,10,18.60
2008,09,30,16,11,18.60
2008,09,30,16,12,18.60
2008,09,30,16,13,18.60
2008,09,30,16,14,18.60
2008,09,30,16,15,18.50
2008,09,30,16,16,18.50
2008,09,30,16,17,18.50
2008,09,30,16,18,18.60
2008,09,30,16,19,18.60
2008,09,30,16,20,18.60
2008,09,30,16,21,18.60
2008,09,30,16,22,18.70
2008,09,30,16,23,18.70
2008,09,30,16,24,18.70
2008,09,30,16,25,18.70
2008,09,30,16,26,18.70
2008,09,30,16,27,18.80
2008,09,30,16,28,18.80
2008,09,30,16,29,18.80
2008,09,30,16,30,18.90
2008,09,30,16,31,18.90
2008,09,30,16,32,18.90
2008,09,30,16,33,18.90
2008,09,30,16,34,18.90
2008,09,30,16,35,18.90
2008,09,30,16,36,18.90
2008,09,30,16,37,18.90
2008,09,30,16,38,19.00
2008,09,30,16,39,19.00
2008,09,30,16,40,19.00
2008,09,30,16,41,18.90
2008,09,30,16,42,18.90
2008,09,30,16,43,18.90
2008,09,30,16,44,18.90
2008,09,30,16,45,18.90
2008,09,30,16,46,18.90
2008,09,30,16,47,18.90
2008,09,30,16,48,18.90
2008,09,30,16,49,18.90
2008,09,30,16,50,18.80
2008,09,30,16,51,18.80
2008,09,30,16,52,18.80
2008,09,30,16,53,18.80
2008,09,30,16,54,18.80
2008,09,30,16,55,18.80
2008,09,30,16,56,18.70
2008,09,30,16,57,18.70
2008,09,30,16,58,18.70
2008,09,30,16,59,18.70
2008,09,30,17,00,18.70
2008,09,30,17,01,18.70
2008,09,30,17,02,18.70
2008,09,30,17,03,18.60
2008,09,30,17,04,18.60
2008,09,30,17,05,18.50
2008,09,30,17,06,18.50
2008,09,30,17,07,18.40
2008,09,30,17,08,18.40
2008,09,30,17,09,18.30
2008,09,30,17,10,18.30
2008,09,30,17,11,18.30
2008,09,30,17,12,18.30
2008,09,30,17,13,18.20
2008,09,30,17,14,18.20
2008,09,30,17,15,18.20
2008,09,30,17,16,18.20
2008,09,30,17,17,18.20
2008,09,30,17,18,18.20
2008,09,30,17,19,18.20
2008,09,30,17,20,18.20
2008,09,30,17,21,18.10
2008,09,30,17,22,18.10
2008,09,30,17,23,18.10
2008,09,30,17,24,18.10
2008,09,30,17,25,18.20
2008,09,30,17,26,18.20
2008,09,30,17,27,18.20
2008,09,30,17,28,18.20
2008,09,30,17,29,18.20
2008,09,30,17,30,18.20
2008,09,30,17,31,18.20